Wind_Speed
10 8 6 8 9 9 11 12 13 14 14 15 13 12 11 9 9 8 6 5 3 2 0 2 2 3 4 4 4 4 5 6 5 5 6 6 7 7 8 9 10 11 11 12
11 8 7 8 8 10 11 12 12 13 14 14 13 12 10 8 8 6 5 3 2 1 0 2 0 2 2 3 3 4 4 4 3 4 5 5 6 7 8 9 10 10 11 11
11 8 8 9 10 10 10 12 13 15 14 14 12 10 8 7 7 6 5 3 2 3 2 2 1 2 1 1 2 2 2 2 3 4 4 5 6 7 7 8 9 10 11 11
10 9 9 9 10 10 11 11 11 12 13 11 9 7 7 6 7 7 6 3 2 3 3 3 2 1 2 1 1 1 1 2 3 3 4 5 6 7 7 7 8 9 10 11
9 9 9 9 8 9 11 10 9 10 10 6 5 5 7 6 6 6 5 4 4 3 4 4 3 3 2 2 2 1 1 1 2 3 5 6 6 6 7 8 9 9 10 11
9 9 8 8 9 9 10 9 9 9 8 6 4 4 5 6 6 4 4 3 3 4 4 5 5 4 4 4 3 3 2 3 3 4 5 6 7 7 8 9 10 10 11 13
8 7 7 7 9 10 10 10 10 10 8 7 5 4 4 4 4 3 3 3 4 4 4 5 5 5 4 4 4 4 4 4 4 5 6 6 7 8 10 10 11 12 13 14
8 7 6 7 7 9 10 10 10 10 7 7 5 4 4 3 3 4 4 3 4 4 5 5 5 5 4 4 4 4 4 5 5 6 7 7 9 10 11 11 12 13 14 16
10 8 8 9 8 9 8 10 10 10 9 7 4 3 2 3 4 4 4 5 4 4 4 5 4 4 4 4 4 4 4 5 6 6 7 9 10 11 12 12 13 15 16 17
12 11 10 9 9 9 10 10 11 11 10 7 5 4 1 2 2 3 3 4 4 4 4 4 4 3 3 3 3 4 4 5 6 7 8 10 11 12 13 14 15 17 18 20
15 15 13 12 12 12 12 12 12 13 12 10 8 4 3 2 2 2 2 3 3 3 3 4 4 3 3 3 3 5 5 6 7 8 9 11 12 13 14 16 17 19 20 22
17 17 16 14 14 14 13 14 15 15 13 12 10 7 4 4 3 2 3 3 3 2 3 3 3 3 4 4 4 5 6 7 8 9 11 12 14 15 16 18 19 21 22 24
18 18 17 16 15 15 14 15 14 14 13 13 12 9 8 6 3 2 3 3 3 3 2 3 4 4 4 4 5 6 7 8 10 11 12 14 15 16 18 19 21 22 24 26
19 18 17 16 16 15 14 15 16 15 14 12 10 9 7 6 4 4 4 4 3 4 4 4 5 5 5 5 6 7 9 10 11 12 13 15 16 18 20 21 23 24 26 28
20 19 19 18 17 17 17 16 16 16 14 14 12 11 10 9 8 7 6 5 4 4 5 6 6 6 6 7 8 9 10 12 13 14 15 17 18 20 22 24 25 27 28 29
20 20 20 19 18 18 18 17 16 16 16 15 15 14 12 11 9 9 8 7 6 6 7 8 8 8 8 9 10 11 13 14 15 16 17 18 20 22 24 26 28 29 30 31
22 20 20 19 18 18 18 17 17 17 17 17 17 15 14 13 11 11 10 9 8 8 8 9 10 11 10 11 13 14 15 16 18 19 20 21 22 24 26 27 29 30 31 33
22 22 20 19 20 20 16 17 17 18 18 18 18 16 15 12 11 11 10 10 10 10 10 11 12 13 13 14 15 16 17 19 20 21 22 24 25 26 28 29 30 31 33 34
22 23 22 21 20 18 18 18 18 19 20 19 18 17 15 12 11 11 11 11 12 12 13 13 14 14 16 16 17 18 20 21 22 23 24 26 26 27 29 30 32 33 34 35
22 22 22 22 21 20 19 19 20 20 20 20 19 18 16 15 13 12 13 14 13 14 15 16 16 17 18 19 19 21 22 23 24 25 26 27 28 29 31 32 33 34 35 36
21 20 20 20 22 21 20 20 20 20 20 19 20 20 19 18 16 15 15 16 16 17 17 18 19 19 20 21 22 23 24 25 26 27 28 29 30 32 33 34 35 36 37 38
22 21 19 19 21 20 18 19 21 21 21 21 20 19 19 17 17 17 18 18 19 20 20 20 20 21 22 23 24 25 26 27 28 29 30 31 32 33 34 35 36 37 39 40
21 21 20 20 20 20 18 18 20 20 21 21 21 20 21 20 20 20 20 20 21 21 21 22 23 23 24 25 26 28 29 29 30 31 32 33 34 35 36 37 38 39 40 41
22 22 23 24 23 20 19 19 20 19 21 21 22 22 23 22 21 21 21 21 22 22 23 23 24 24 26 27 28 29 30 31 32 33 34 34 35 36 37 38 40 41 42 43
22 22 23 22 21 21 23 22 22 23 23 23 23 22 24 23 21 22 23 23 23 24 25 25 26 27 28 29 30 31 32 33 33 35 36 37 38 38 39 40 41 42 43 44
24 24 23 22 22 23 23 23 22 21 21 20 20 22 22 21 21 23 23 24 25 26 27 27 28 29 30 30 31 33 34 34 35 36 37 38 39 40 41 42 43 44 45 45
Wind_Direction
272 270 288 306 317 324 326 320 319 322 326 329 329 332 337 341 342 342 332 327 331 325 319 101 188 233 243 249 259 268 283 294 294 298 304 299 300 300 301 300 299 296 296 296
268 269 282 300 317 318 321 318 320 326 323 324 329 330 330 345 350 345 337 333 332 330 158 155 204 271 276 259 267 272 290 294 303 308 307 306 310 311 308 304 303 302 303 304
269 271 278 291 303 306 314 314 321 326 320 318 322 330 335 342 357 356 343 354 39 70 76 74 75 18 357 270 290 282 297 323 328 319 314 318 321 320 316 314 316 315 315 311
269 269 273 282 291 296 301 303 316 325 323 316 316 323 332 334 345 351 354 12 56 71 72 66 65 10 352 352 357 334 307 322 330 333 332 330 330 331 328 325 323 322 321 318
272 268 273 279 286 290 296 302 314 325 328 324 325 333 350 350 351 356 8 38 66 74 60 56 51 46 66 67 58 51 42 17 0 352 347 345 343 340 337 334 332 330 327 325
270 275 283 278 274 281 289 292 298 309 310 315 335 349 356 2 17 19 29 38 70 72 59 53 53 61 69 75 69 62 49 25 10 358 352 348 345 343 343 341 338 335 332 330
261 272 282 275 267 271 276 280 288 291 290 299 327 348 3 7 25 40 49 77 89 81 66 60 62 65 64 57 52 46 37 24 11 2 358 353 348 346 346 344 341 338 336 333
262 257 265 266 266 269 271 272 283 290 294 305 314 339 3 10 36 46 53 92 99 92 80 73 69 71 68 59 51 42 33 23 13 7 3 358 352 348 346 343 341 339 336 333
266 259 259 259 267 269 267 263 279 293 296 302 301 322 359 47 59 51 60 82 90 85 80 75 69 67 60 50 43 35 27 19 11 6 0 356 353 351 347 344 341 339 336 334
259 262 255 261 264 268 261 259 266 275 281 287 291 308 340 30 43 56 74 76 77 84 83 74 65 58 51 43 34 26 17 7 1 357 353 351 350 347 344 341 339 336 334 333
249 256 257 258 263 267 264 265 269 267 268 272 279 289 307 330 354 32 70 73 73 73 59 52 50 43 35 24 17 13 5 356 348 345 344 345 343 341 339 337 334 333 332 331
246 252 255 257 261 262 263 266 268 265 266 267 272 280 291 311 327 5 33 45 44 41 36 27 22 18 11 7 2 357 349 341 338 338 337 336 335 334 333 332 330 329 328 328
243 249 255 253 255 257 259 260 261 259 258 261 265 278 279 288 308 346 9 23 20 13 358 355 351 350 347 347 344 340 335 332 331 330 330 330 329 329 328 327 326 327 327 326
245 250 255 254 252 252 253 251 252 255 255 257 263 273 281 282 298 312 327 336 346 351 340 330 327 327 327 326 327 327 326 323 323 322 322 323 324 324 323 323 323 323 324 325
247 252 252 252 253 252 247 247 252 257 259 261 266 272 277 273 281 293 304 311 319 324 322 317 313 313 315 315 315 316 316 314 315 316 315 316 318 320 321 322 322 322 322 323
247 254 253 251 254 252 246 241 245 251 254 258 263 267 272 276 280 287 293 298 302 307 309 307 306 303 305 306 306 307 307 308 310 311 312 314 315 317 319 320 321 321 321 322
252 257 256 252 250 249 244 242 244 242 247 256 262 266 269 276 280 285 289 292 297 300 301 299 299 298 299 300 301 302 303 304 306 308 309 311 313 314 315 317 319 319 320 320
254 257 260 256 250 248 242 241 243 243 248 256 261 263 268 274 275 277 279 286 290 290 290 290 293 294 294 296 296 297 299 301 303 305 306 308 310 311 313 315 317 318 319 320
256 255 256 253 249 247 242 242 244 245 249 255 261 263 266 266 267 270 275 280 280 281 283 287 289 291 290 290 292 294 295 298 300 302 304 306 308 309 312 313 315 317 318 320
256 254 255 253 251 250 246 243 244 246 250 256 262 264 265 264 266 271 274 275 275 278 283 284 286 290 290 290 291 293 295 298 300 301 302 304 305 307 310 311 313 316 317 319
251 253 257 255 252 253 247 244 247 248 254 261 264 262 263 263 263 270 275 277 278 280 283 286 287 289 290 290 291 294 296 298 299 299 300 302 303 306 308 310 312 314 316 318
253 255 256 253 255 257 252 248 250 255 257 262 265 261 260 261 262 271 275 277 279 281 283 285 286 287 288 290 291 293 294 296 297 298 300 301 302 304 307 309 310 312 314 316
254 254 257 260 263 263 262 263 261 261 259 261 262 263 261 260 263 270 273 275 277 280 283 285 285 285 287 290 291 292 293 295 296 298 300 301 302 304 306 308 310 311 312 314
259 262 263 262 264 268 269 269 270 269 268 264 264 263 262 267 266 270 272 274 277 280 283 284 285 286 287 289 290 291 292 294 296 298 300 301 303 304 306 307 309 310 311 313
261 262 266 267 267 271 270 268 272 273 270 269 266 265 265 267 267 270 273 277 278 280 282 285 286 286 287 288 289 291 292 295 297 297 299 301 302 304 305 307 308 309 310 311
261 264 266 269 272 272 271 271 273 267 265 265 264 266 268 271 273 274 276 278 279 281 283 284 286 287 288 289 290 291 293 294 294 296 297 299 301 302 304 305 306 308 309 310
Height
5887 5887 5885 5884 5883 5881 5880 5879 5877 5875 5873 5871 5869 5867 5864 5861 5858 5856 5855 5854 5854 5854 5854 5854 5855 5856 5857 5858 5859 5860 5860 5861 5861 5860 5860 5859 5859 5858 5857 5856 5855 5854 5853 5852
5885 5884 5883 5881 5880 5879 5877 5877 5875 5874 5872 5869 5867 5866 5863 5860 5858 5857 5856 5855 5854 5854 5855 5854 5854 5854 5854 5855 5856 5857 5858 5858 5858 5858 5858 5858 5857 5856 5854 5853 5852 5851 5850 5848
5881 5881 5879 5878 5877 5876 5875 5875 5873 5872 5869 5867 5866 5865 5862 5860 5858 5857 5856 5856 5855 5854 5854 5854 5854 5854 5853 5854 5855 5855 5856 5856 5856 5856 5856 5856 5855 5853 5852 5851 5849 5848 5847 5845
5878 5878 5877 5876 5875 5874 5873 5873 5872 5870 5868 5866 5865 5864 5862 5860 5859 5857 5856 5855 5854 5854 5854 5854 5854 5853 5853 5852 5853 5854 5855 5855 5855 5855 5854 5853 5852 5851 5850 5849 5847 5846 5844 5842
5875 5875 5874 5873 5873 5873 5872 5871 5870 5869 5867 5865 5864 5862 5862 5859 5858 5857 5855 5854 5854 5854 5854 5854 5854 5853 5852 5852 5853 5853 5854 5854 5853 5853 5852 5851 5850 5849 5848 5846 5845 5843 5841 5839
5872 5872 5871 5871 5871 5870 5869 5869 5868 5867 5866 5865 5863 5861 5861 5859 5857 5856 5855 5855 5854 5854 5854 5853 5853 5853 5852 5852 5853 5853 5853 5852 5852 5851 5850 5849 5848 5847 5846 5844 5842 5840 5838 5836
5869 5869 5869 5868 5868 5867 5867 5867 5866 5865 5864 5863 5862 5860 5860 5858 5857 5856 5855 5854 5854 5854 5854 5853 5853 5853 5852 5852 5852 5851 5851 5851 5850 5849 5848 5847 5846 5845 5843 5841 5839 5837 5835 5833
5865 5866 5866 5865 5865 5865 5864 5864 5864 5863 5861 5861 5860 5859 5859 5856 5856 5855 5854 5853 5853 5853 5853 5853 5853 5853 5852 5852 5851 5851 5850 5850 5849 5848 5847 5846 5844 5842 5841 5839 5837 5835 5832 5830
5862 5863 5863 5862 5862 5862 5862 5861 5861 5860 5860 5859 5859 5858 5857 5855 5855 5854 5853 5853 5853 5853 5853 5853 5853 5852 5852 5851 5851 5850 5849 5849 5848 5846 5845 5844 5842 5840 5838 5836 5834 5832 5829 5827
5858 5859 5860 5860 5860 5860 5860 5859 5859 5858 5857 5857 5857 5856 5856 5855 5854 5853 5853 5852 5852 5852 5852 5852 5852 5851 5851 5850 5850 5849 5848 5847 5846 5845 5843 5842 5840 5838 5836 5833 5831 5829 5826 5823
5853 5855 5857 5857 5857 5857 5857 5856 5855 5855 5855 5855 5854 5856 5854 5853 5852 5852 5851 5851 5851 5851 5851 5850 5850 5850 5849 5849 5848 5847 5846 5845 5844 5843 5841 5840 5838 5835 5833 5831 5828 5825 5822 5819
5849 5851 5851 5853 5853 5853 5853 5852 5852 5852 5852 5851 5851 5855 5852 5850 5849 5849 5849 5849 5849 5849 5849 5849 5849 5848 5847 5847 5846 5845 5844 5843 5842 5840 5838 5837 5834 5832 5830 5827 5824 5821 5818 5815
5844 5846 5848 5848 5851 5850 5849 5849 5849 5848 5848 5848 5848 5851 5848 5848 5847 5847 5847 5847 5847 5847 5847 5847 5846 5846 5845 5844 5844 5843 5842 5841 5839 5837 5836 5834 5832 5829 5827 5824 5821 5817 5814 5810
5840 5842 5844 5845 5845 5844 5844 5845 5845 5845 5844 5844 5845 5846 5846 5845 5845 5845 5845 5845 5844 5844 5844 5844 5844 5843 5843 5842 5841 5840 5839 5838 5836 5835 5833 5831 5828 5826 5823 5820 5816 5813 5809 5804
5835 5837 5838 5839 5840 5840 5840 5840 5840 5840 5840 5841 5842 5842 5842 5842 5842 5843 5842 5842 5842 5842 5842 5842 5841 5841 5840 5839 5838 5837 5836 5834 5833 5831 5829 5827 5824 5821 5818 5815 5811 5807 5803 5799
5830 5832 5833 5834 5835 5835 5835 5836 5836 5836 5835 5836 5837 5838 5838 5838 5839 5839 5839 5839 5839 5839 5839 5838 5838 5837 5836 5836 5835 5834 5832 5831 5829 5827 5824 5822 5819 5816 5813 5809 5805 5801 5797 5792
5826 5827 5829 5830 5829 5829 5831 5832 5831 5831 5831 5832 5832 5834 5834 5834 5835 5835 5835 5835 5835 5835 5835 5834 5834 5833 5832 5832 5831 5829 5828 5826 5824 5822 5819 5817 5814 5811 5807 5803 5799 5795 5790 5786
5820 5822 5823 5824 5825 5825 5829 5827 5827 5827 5827 5827 5828 5829 5829 5830 5831 5831 5831 5831 5831 5831 5831 5830 5829 5829 5828 5827 5826 5824 5823 5821 5819 5817 5814 5811 5808 5804 5801 5797 5792 5788 5783 5778
5814 5816 5817 5818 5818 5820 5822 5822 5822 5822 5823 5823 5823 5824 5825 5826 5826 5827 5827 5827 5827 5827 5827 5826 5825 5824 5823 5822 5821 5819 5817 5815 5813 5811 5808 5805 5801 5798 5794 5789 5785 5781 5776 5770
5809 5810 5812 5812 5813 5814 5817 5817 5817 5818 5818 5818 5818 5819 5820 5821 5822 5823 5823 5822 5822 5822 5821 5821 5820 5819 5818 5816 5815 5813 5812 5809 5807 5804 5801 5798 5794 5790 5786 5782 5777 5773 5768 5762
5802 5804 5805 5806 5806 5808 5810 5812 5813 5814 5814 5814 5813 5814 5815 5816 5817 5818 5818 5817 5817 5817 5816 5815 5814 5813 5812 5811 5809 5807 5805 5803 5800 5797 5794 5790 5786 5782 5778 5774 5769 5764 5759 5754
5797 5798 5799 5800 5800 5804 5804 5806 5808 5808 5808 5809 5809 5809 5809 5810 5811 5812 5812 5812 5811 5811 5810 5809 5808 5807 5806 5804 5802 5800 5798 5795 5793 5789 5786 5782 5778 5774 5770 5765 5760 5755 5750 5745
5790 5793 5793 5794 5797 5797 5797 5799 5801 5801 5802 5802 5803 5804 5804 5805 5805 5805 5805 5805 5804 5804 5803 5802 5801 5800 5798 5796 5794 5792 5790 5787 5784 5781 5777 5774 5770 5765 5761 5756 5751 5746 5741 5735
5784 5785 5786 5788 5789 5789 5791 5793 5794 5795 5795 5795 5796 5797 5798 5798 5798 5798 5799 5798 5798 5797 5796 5795 5794 5792 5790 5788 5786 5784 5781 5778 5775 5771 5768 5764 5760 5756 5751 5746 5741 5736 5731 5725
5778 5779 5780 5781 5782 5784 5785 5786 5787 5788 5788 5788 5789 5789 5790 5790 5791 5791 5792 5791 5790 5789 5788 5787 5785 5784 5782 5780 5777 5775 5772 5769 5765 5762 5759 5755 5751 5746 5741 5736 5731 5726 5721 5714
5772 5773 5774 5775 5776 5777 5777 5778 5779 5780 5780 5781 5781 5782 5783 5783 5783 5783 5783 5783 5782 5781 5780 5778 5777 5775 5773 5771 5768 5765 5762 5760 5756 5753 5749 5745 5740 5736 5731 5726 5721 5715 5710 5704